STARLINK-1950 (46778 NORAD) Tracking and Keplerian Element Data
This shows tracking and keplerian element data for the satellite.
Feedback or suggestion? Click here.
Element | Value |
Catalog | 46778 |
Name | STARLINK-1950 |
Epoch Orbit | 254 |
Epoch Day | 311.51092487 |
Epoch Year | 2020 |
RAAN | 96.2674 |
Inclination | 53.0237 |
Eccentricity | 0.0009929 |
Argument of Perigee | 317.8245 |
Mean Anonmoly | 47.819 |
Mean Motion | 16.3809109 |
Decay Rate | 0.22766354 |
L1 | 1 46778U 20074AR 20311.51092487 .22766354 12436-4 20389-2 0 9997 |
L2 | 2 46778 53.0237 96.2674 0009929 317.8245 47.8190 16.38091090 2544 |
Live tracking and technical data element details for STARLINK-1950 (NORAD 46778). STARLINK-1950 can be tracked NOW for your location showing map with azimuth and elevation plus other details from your city location.
Track the satellite on the map from your city or location and see movement details for azimuth, elevation, latitude, longitude, range, height, and movement on the map or in text.
IsCatalogInMostPopularTable: catalog: 46778, numindb: 29
Update: records affected: 1
GetName: 46778 STARLINK-1950
Hit Count: updated at: Mon, 18 Jan 2021 16:36:59 GMT